(183114) Vicques = 2002 RU140

Discovered at Vicques on 2002-09-13 by M. Ory.
(183114) Vicques = 2002 RU140

Vicques is a small village in Swiss Jura and has been home to the Jura Observatory since 1998. The main goals of this amateur station are to carry out research and to introduce astronomy to the general public. Between 2001 and 2008 about 50 minor planets were found at Vicques. [Ref: Minor Planet Circ. 63643]

Orbit

Orbit type: Main Belt

Note: WebGL enabled browser required.

epoch2023-09-13.0
epoch JD2460200.5
perihelion date2021-02-07.44530
perihelion JD2459252.94530
argument of perihelion (°)53.36236
ascending node (°)329.73434
inclination (°)5.73486
eccentricity0.1491341
perihelion distance (AU)2.0178807
Tisserand w.r.t. Jupiter3.5
ΔV w.r.t. Earth (km/sec)9.0
semimajor axis (AU)2.3715615
mean anomaly (°)255.71521
mean daily motion (°/day)0.26986860
aphelion distance (AU)2.725
period (years)3.65
P-vector [x]0.91781995
P-vector [y]0.32483627
P-vector [z]0.22822783
Q-vector [x]-0.39378939
Q-vector [y]0.81785403
Q-vector [z]0.41957681
absolute magnitude15.94
phase slope0.15
uncertainty0
referenceMPEC 2023-X132
observations used925
oppositions15
arc length (days)8073
first opposition used2001
last opposition used2023
residual rms (arc-secs)0.68
perturbers coarse indicatorM-v
perturbers precise indicator003Ek
first observation date used2001-05-14.0
last observation date used2023-06-21.0
computer nameMPCLINUX
JD of orbit computation2456700.376623
perihelion JD uncertainty (days)5.9895E-05
argument of perihelion uncertainty (°)5.3480E-05
ascending node uncertainty (°)4.9753E-05
inclination uncertainty (°)5.5017E-06
eccentricity uncertainty 6.2933E-08
perihelion distance uncertainty (AU)1.4811E-07
Minimum Orbit Intersection Distances (in AU)
for orbit epoch: 2460200.5, reference: E2023-XD2
Mercury1.68081
Venus1.30209
Earth1.02581
Mars0.59691
Jupiter2.7526
Saturn6.72314
Uranus15.7854
Neptune27.8324

Observations

940 total observations over interval: 2001 05 14.31167 – 2023 06 21.306421
These data are available for download (format description).

Date (UT) J2000 RA J2000 Dec Magn Location Ref
2001 05 14.31167 14 45 19.62 -25 25 50.8 20.1   644 – Palomar Mountain/NEAT MPS 63577
2001 05 14.32330 14 45 18.87 -25 25 47.7 19.9   644 – Palomar Mountain/NEAT MPS 63577
2001 05 14.33344 14 45 18.24 -25 25 44.9 19.9   644 – Palomar Mountain/NEAT MPS 63577
2001 05 25.25934 14 34 45.01 -24 33 29.2 20.5   644 – Palomar Mountain/NEAT MPS 63577
2001 05 25.27022 14 34 44.46 -24 33 25.6 20.0   644 – Palomar Mountain/NEAT MPS 63577
2001 05 25.28101 14 34 43.86 -24 33 22.5 19.7   644 – Palomar Mountain/NEAT MPS 63577
2002 08 11.36077 00 58 26.51 +09 53 05.6 19.3   704 – Lincoln Laboratory ETS, New Mexico MPS 67986
2002 08 11.37525 00 58 26.82 +09 53 10.7 19.8   704 – Lincoln Laboratory ETS, New Mexico MPS 67986
2002 08 11.38918 00 58 27.11 +09 53 17.3 19.5   704 – Lincoln Laboratory ETS, New Mexico MPS 67986
2002 08 11.40328 00 58 27.36 +09 53 23.2 19.6   704 – Lincoln Laboratory ETS, New Mexico MPS 67986
2002 08 11.41762 00 58 27.71 +09 53 29.2 19.3   704 – Lincoln Laboratory ETS, New Mexico MPS 67986
2002 09 06.27036 00 57 10.28 +12 02 01.8 18.8   704 – Lincoln Laboratory ETS, New Mexico MPS 67986
2002 09 06.28427 00 57 09.85 +12 02 04.2 18.7   704 – Lincoln Laboratory ETS, New Mexico MPS 67986
2002 09 06.29812 00 57 09.37 +12 02 06.1 19.1   704 – Lincoln Laboratory ETS, New Mexico MPS 67986
2002 09 06.31196 00 57 08.96 +12 02 08.3 19.0   704 – Lincoln Laboratory ETS, New Mexico MPS 67986
2002 09 06.32599 00 57 08.55 +12 02 11.0 19.1   704 – Lincoln Laboratory ETS, New Mexico MPS 67986
2002 09 13.91840 00 52 41.30 +12 16 14.2 17.9 R 185 – Observatoire Astronomique Jurassien-Vicques MPS 61775
2002 09 13.92912 00 52 40.83 +12 16 15.1 18.0 R 185 – Observatoire Astronomique Jurassien-Vicques MPS 61775
2002 09 13.93892 00 52 40.42 +12 16 15.7 18.0 R 185 – Observatoire Astronomique Jurassien-Vicques MPS 61775
2002 09 14.51685 00 52 15.70 +12 16 54.1 19.0   608 – Haleakala-AMOS MPS 61775
2002 09 14.52746 00 52 15.20 +12 16 54.5 18.7   608 – Haleakala-AMOS MPS 61775
2002 09 14.53779 00 52 14.74 +12 16 55.3 19.0   608 – Haleakala-AMOS MPS 61775
2002 09 14.92038 00 51 58.72 +12 17 12.9   185 – Observatoire Astronomique Jurassien-Vicques MPS 61775
2002 09 14.92294 00 51 58.60 +12 17 13.1 18.2 R 185 – Observatoire Astronomique Jurassien-Vicques MPS 61775
2002 09 14.92531 00 51 58.51 +12 17 13.0   185 – Observatoire Astronomique Jurassien-Vicques MPS 61775
2002 09 14.92881 00 51 58.34 +12 17 12.8 18.3 R 185 – Observatoire Astronomique Jurassien-Vicques MPS 61775
2002 09 16.87325 00 50 31.50 +12 18 31.0 17.4 R 185 – Observatoire Astronomique Jurassien-Vicques MPS 63577
2002 09 16.88691 00 50 30.82 +12 18 31.0 17.8 R 185 – Observatoire Astronomique Jurassien-Vicques MPS 63577
2002 09 16.89929 00 50 30.26 +12 18 31.7 17.5 R 185 – Observatoire Astronomique Jurassien-Vicques MPS 63577
2002 09 16.91096 00 50 29.69 +12 18 32.1 17.8 R 185 – Observatoire Astronomique Jurassien-Vicques MPS 63577
2002 09 16.92198 00 50 29.13 +12 18 32.2 17.8 R 185 – Observatoire Astronomique Jurassien-Vicques MPS 63577
2002 09 28.90360 00 39 53.63 +12 09 54.4 17.6 R 185 – Observatoire Astronomique Jurassien-Vicques MPS 63577
2002 09 28.93222 00 39 51.92 +12 09 51.6 17.6 R 185 – Observatoire Astronomique Jurassien-Vicques MPS 63577
2002 09 28.94990 00 39 50.85 +12 09 49.6 17.4 R 185 – Observatoire Astronomique Jurassien-Vicques MPS 63577
2002 09 28.96180 00 39 50.21 +12 09 48.1 17.8 R A05 – Belesta MPS 63577
2002 09 29.00208 00 39 47.76 +12 09 43.7 17.8 R A05 – Belesta MPS 63577
2002 09 29.04062 00 39 45.42 +12 09 39.5 17.5 R A05 – Belesta MPS 63577
2002 09 30.82892 00 38 01.30 +12 06 05.0 17.2 R 185 – Observatoire Astronomique Jurassien-Vicques MPS 63577
2002 09 30.83605 00 38 00.85 +12 06 03.9 17.2 R 185 – Observatoire Astronomique Jurassien-Vicques MPS 63577
2002 09 30.83889 00 38 00.63 +12 06 03.2 17.6 R 469 – Courroux MPS 63577
2002 09 30.84557 00 38 00.28 +12 06 02.6 17.2 R 185 – Observatoire Astronomique Jurassien-Vicques MPS 63577
2002 09 30.84676 00 38 00.22 +12 06 02.7 17.3 R 469 – Courroux MPS 63577
2002 09 30.85590 00 37 59.67 +12 06 01.6 17.2 R 469 – Courroux MPS 63577
2002 09 30.86562 00 37 59.04 +12 06 00.4 17.8 R 469 – Courroux MPS 63577
2002 10 01.87064 00 36 59.85 +12 03 47.2   185 – Observatoire Astronomique Jurassien-Vicques MPS 63577
2002 10 01.88255 00 36 59.14 +12 03 44.6   185 – Observatoire Astronomique Jurassien-Vicques MPS 63577
2002 10 01.88917 00 36 58.77 +12 03 42.5   185 – Observatoire Astronomique Jurassien-Vicques MPS 63577
2002 10 04.25816 00 34 38.49 +11 57 53.6 17.6   704 – Lincoln Laboratory ETS, New Mexico MPS 63577
2002 10 04.27393 00 34 37.50 +11 57 50.9 17.7   704 – Lincoln Laboratory ETS, New Mexico MPS 63577
2002 10 04.28949 00 34 36.56 +11 57 48.6 17.5   704 – Lincoln Laboratory ETS, New Mexico MPS 63577
2002 10 04.29380 00 34 36.34 +11 57 47.9 17.2   644 – Palomar Mountain/NEAT MPS 63577
2002 10 04.30429 00 34 35.69 +11 57 46.2 17.2   644 – Palomar Mountain/NEAT MPS 63577
2002 10 04.30517 00 34 35.56 +11 57 46.0 17.9   704 – Lincoln Laboratory ETS, New Mexico MPS 63577
2002 10 04.31490 00 34 35.02 +11 57 44.5 17.2   644 – Palomar Mountain/NEAT MPS 63577
2002 10 04.32089 00 34 34.60 +11 57 43.6 17.8   704 – Lincoln Laboratory ETS, New Mexico MPS 63577
2002 10 05.98541 00 32 56.31 +11 53 06.1 17.3 R A05 – Belesta MPS 63577
2002 10 06.00799 00 32 54.91 +11 53 02.1 17.2 R A05 – Belesta MPS 63577
2002 10 06.02535 00 32 53.85 +11 52 59.2 17.3 R A05 – Belesta MPS 63577
2002 10 07.25867 00 31 41.63 +11 49 23.6 17.2 R 699 – Lowell Observatory-LONEOS MPS 63577
2002 10 07.27969 00 31 40.36 +11 49 20.1   699 – Lowell Observatory-LONEOS MPS 63577
2002 10 07.30069 00 31 39.03 +11 49 16.6   699 – Lowell Observatory-LONEOS MPS 63577
2002 10 07.32171 00 31 37.75 +11 49 12.8   699 – Lowell Observatory-LONEOS MPS 63577
2002 10 07.79684 00 31 10.39 +11 47 43.7 17.3 R 185 – Observatoire Astronomique Jurassien-Vicques MPS 63577
2002 10 07.80469 00 31 09.92 +11 47 42.3 17.1 R 185 – Observatoire Astronomique Jurassien-Vicques MPS 63577
2002 10 09.25470 00 29 45.54 +11 43 12.4 17.7   704 – Lincoln Laboratory ETS, New Mexico MPS 63577
2002 10 09.27031 00 29 44.59 +11 43 09.2 17.7   704 – Lincoln Laboratory ETS, New Mexico MPS 63577
2002 10 09.28587 00 29 43.66 +11 43 06.4 17.9   704 – Lincoln Laboratory ETS, New Mexico MPS 63577
2002 10 09.30137 00 29 42.72 +11 43 03.3 17.8   704 – Lincoln Laboratory ETS, New Mexico MPS 63577
2002 10 09.31721 00 29 41.75 +11 42 59.9 18.0   704 – Lincoln Laboratory ETS, New Mexico MPS 63577
2002 10 09.86215 00 29 10.79 +11 41 12.8 17.0 R 185 – Observatoire Astronomique Jurassien-Vicques MPS 63577
2002 10 09.87060 00 29 10.30 +11 41 10.9 17.1 R 185 – Observatoire Astronomique Jurassien-Vicques MPS 63577
2002 10 09.88009 00 29 09.73 +11 41 09.3 17.3 R 185 – Observatoire Astronomique Jurassien-Vicques MPS 63577
2002 10 12.25112 00 26 55.87 +11 33 16.7 17.7   704 – Lincoln Laboratory ETS, New Mexico MPS 63577
2002 10 12.26760 00 26 54.89 +11 33 12.9 18.4   704 – Lincoln Laboratory ETS, New Mexico MPS 63577
2002 10 12.28422 00 26 53.94 +11 33 10.1 18.2   704 – Lincoln Laboratory ETS, New Mexico MPS 63577
2002 10 12.30090 00 26 52.95 +11 33 06.7 18.0   704 – Lincoln Laboratory ETS, New Mexico MPS 63577
2002 10 12.31738 00 26 51.98 +11 33 03.2 18.1   704 – Lincoln Laboratory ETS, New Mexico MPS 63577
2002 10 29.76463 00 14 04.09 +10 32 26.5 18.0 R 185 – Observatoire Astronomique Jurassien-Vicques MPS 65943
2002 10 29.77126 00 14 03.81 +10 32 25.1   185 – Observatoire Astronomique Jurassien-Vicques MPS 65943
2002 10 29.77964 00 14 03.62 +10 32 23.6   185 – Observatoire Astronomique Jurassien-Vicques MPS 65943
2002 10 29.78350 00 14 03.45 +10 32 22.8   185 – Observatoire Astronomique Jurassien-Vicques MPS 65943
2002 10 29.82898 00 14 02.03 +10 32 14.8   185 – Observatoire Astronomique Jurassien-Vicques MPS 65943
